Cut Bank, MT

4:30 PM MDT on March 22, 2017 (GMT -0600)
Cut Bank Municipal

Weather History for KCTB - August, 2013

Change the Weather History Date:

Saturday, August 31, 2013

  Actual Average Record
Temperature  
Mean Temperature 61 °F 59 °F  
Max Temperature 77 °F 74 °F 97 °F (1991)
Min Temperature 44 °F 45 °F 30 °F (1930)
Degree Days  
Heating Degree Days 4 6  
Month to date heating degree days 31 108  
Since 1 June heating degree days 281 427  
Since 1 July heating degree days 72 194  
Cooling Degree Days 0 1  
Month to date cooling degree days 96 64  
Year to date cooling degree days 195 153  
Since 1 June cooling degree days 193 151  
Growing Degree Days 11 (Base 50)    
Moisture  
Dew Point 40 °F    
Average Humidity 54    
Maximum Humidity 83    
Minimum Humidity 25    
Precipitation  
Precipitation 0.00 in 0.04 in 0.66 in (2008)
Month to date precipitation 1.39 1.19  
Year to date precipitation 10.89 8.66  
Snow  
Snow 0.00 in - - ()
Snow Depth 0.00 in    
Sea Level Pressure  
Sea Level Pressure 30.09 in    
Wind  
Wind Speed 5 mph (ENE)    
Max Wind Speed 14 mph    
Max Gust Speed 17 mph    
Visibility 10 miles    
Events      
T = Trace of Precipitation, MM = Missing Value Source: NWS Daily Summary

Daily Weather History Graph

Daily Weather History Graph

Search for Another Location

Airport or City:

Trip Planner

Search our weather history database for the weather conditions in past years. The results will help you decide how hot, cold, wet, or windy it might be!

Date:

Astronomy

Aug. 31, 2013 Rise Set
Actual Time 6:45 AM MDT 8:12 PM MDT
Civil Twilight 6:12 AM MDT 8:45 PM MDT
Nautical Twilight 5:33 AM MDT 9:24 PM MDT
Astronomical Twilight 4:50 AM MDT 10:07 PM MDT
Moon 2:03 AM MDT (8/31) 5:26 PM MDT (8/31)
Length of Visible Light 14h 32m
Length of Day
13h 27m
Waning Crescent, 20% of the Moon is Illuminated
Aug 31
Waning Crescent
Sep 5
New
Sep 12
First Quarter
Sep 19
Full
Sep 26
Last Quarter

Hourly Weather History & Observations

Time (MDT) Temp. Windchill Dew Point Humidity Pressure Visibility Wind Dir Wind Speed Gust Speed Precip Events Conditions
12:56 AM 55.9 °F - 41.0 °F 57% 30.02 in 10.0 mi NW 11.5 mph - N/A   Clear
1:56 AM 52.0 °F - 42.1 °F 69% 30.04 in 10.0 mi East 3.5 mph - N/A   Clear
2:56 AM 52.0 °F - 41.0 °F 66% 30.06 in 10.0 mi Calm Calm - N/A   Clear
3:56 AM 50.0 °F - 42.1 °F 74% 30.07 in 10.0 mi Variable 3.5 mph - N/A   Clear
4:56 AM 48.9 °F - 41.0 °F 74% 30.09 in 10.0 mi West 4.6 mph - N/A   Clear
5:56 AM 48.0 °F - 41.0 °F 77% 30.10 in 10.0 mi WSW 3.5 mph - N/A   Clear
6:56 AM 45.0 °F 41.2 °F 39.9 °F 82% 30.12 in 10.0 mi West 6.9 mph - N/A   Clear
7:56 AM 50.0 °F - 43.0 °F 77% 30.14 in 10.0 mi Calm Calm - N/A   Clear
8:56 AM 57.0 °F - 45.0 °F 64% 30.15 in 10.0 mi North 5.8 mph - N/A   Clear
9:56 AM 64.0 °F - 39.9 °F 41% 30.14 in 10.0 mi NE 6.9 mph - N/A   Clear
10:56 AM 64.9 °F - 39.0 °F 39% 30.14 in 10.0 mi Variable 5.8 mph - N/A   Clear
11:56 AM 66.9 °F - 39.9 °F 37% 30.14 in 10.0 mi Calm Calm - N/A   Clear
12:56 PM 69.1 °F - 39.0 °F 33% 30.12 in 10.0 mi Calm Calm - N/A   Clear
1:56 PM 72.0 °F - 39.0 °F 30% 30.12 in 10.0 mi Variable 4.6 mph - N/A   Clear
2:56 PM 73.9 °F - 39.0 °F 28% 30.10 in 10.0 mi Variable 5.8 mph - N/A   Clear
3:56 PM 75.0 °F - 39.0 °F 27% 30.08 in 10.0 mi North 5.8 mph - N/A   Clear
4:56 PM 75.0 °F - 39.0 °F 27% 30.06 in 10.0 mi SE 3.5 mph - N/A   Clear
5:56 PM 77.0 °F - 39.0 °F 25% 30.05 in 10.0 mi North 4.6 mph - N/A   Clear
6:56 PM 75.0 °F - 37.9 °F 26% 30.06 in 10.0 mi ESE 9.2 mph - N/A   Clear
7:56 PM 69.1 °F - 37.9 °F 32% 30.06 in 10.0 mi East 9.2 mph - N/A   Clear
8:56 PM 63.0 °F - 37.9 °F 40% 30.07 in 10.0 mi East 8.1 mph - N/A   Clear
9:56 PM 61.0 °F - 37.0 °F 41% 30.06 in 10.0 mi East 5.8 mph - N/A   Clear
10:56 PM 59.0 °F - 37.9 °F 46% 30.06 in 10.0 mi ESE 5.8 mph - N/A   Clear
11:56 PM 55.9 °F - 37.9 °F 51% 30.06 in 10.0 mi South 4.6 mph - N/A   Clear